FW9914 Weather Reports


time (UTC)temp
C
wind
direction
speed
KPH
gust
KPH
rain 1hr
cm
rain 24hr
cm
rain mn
cm
humidity
%
barometer
mb
20260906230112 13 96 0.0 0.0 0.00 0.00 0.00 96 1017.7
20260906220147 13 96 0.0 0.0 0.00 0.00 0.00 96 1018.0
20260906210122 13 96 0.0 0.0 0.00 0.00 0.00 96 1018.1
20260906200146 13 96 0.0 0.0 0.00 0.00 0.00 96 1018.6
20260906190128 12 96 0.0 0.0 0.00 0.00 0.00 94 1019.0
20260906180318 13 96 0.0 0.0 0.00 0.00 0.00 92 1019.5
20260906170148 12 96 0.0 0.0 0.00 0.00 0.00 89 1019.7
20260906160135 12 96 0.0 0.0 0.00 0.00 0.00 93 1020.0
20260906150107 11 96 0.0 0.0 0.00 0.00 0.00 93 1020.2
20260906140147 11 96 0.0 0.0 0.00 0.00 0.00 93 1020.2
20260906130144 11 96 0.0 0.0 0.00 0.00 0.00 94 1020.3
20260906120151 11 96 0.0 0.0 0.00 0.00 0.00 94 1021.1
20260906110144 11 96 0.0 0.0 0.00 0.00 0.00 94 1020.3
20260906100123 11 96 0.0 0.0 0.00 0.00 0.00 94 1021.3
20260906090223 11 96 0.0 0.0 0.00 0.00 0.00 94 1021.6
20260906080133 11 96 0.0 0.0 0.00 0.00 0.00 94 1022.0
20260906070100 11 96 0.0 0.0 0.00 0.00 0.00 93 1022.3
20260906050120 11 96 0.0 0.0 0.00 0.00 0.00 92 1022.4
20260906040137 11 96 0.0 0.0 0.00 0.00 0.00 91 1022.5
20260906030146 11 96 0.0 0.0 0.00 0.00 0.00 90 1022.5
20260906020058 12 96 0.0 0.0 0.00 0.00 0.00 88 1022.4
20260906010131 12 96 0.0 0.0 0.00 0.00 0.00 89 1021.8
20260906000108 12 96 0.0 0.0 0.00 0.00 0.00 88 1021.8